Dewpoint
66 66 66 65 65 65 65 65 65 65 65 65 65 65 64 63 62 61 61 61 61 62 62 62 63 63 63 64 65 65 66 66 66 66 65 65 65 64 64 63 63 63 63 63 63 63 63 62 62 62 62 62 61 61 61 60 59 58 58 57 56 55 53 52 51 50 49 48 47 43 40 41 40 41 40 39 43 45 42 39 41 43 45 45 45
65 65 65 65 65 65 65 65 64 64 64 65 65 65 65 64 63 62 61 61 61 61 62 62 62 63 63 63 64 65 66 66 66 66 65 65 64 64 64 63 63 63 62 62 63 63 63 62 62 62 62 62 62 61 61 60 59 58 58 57 56 55 55 53 52 51 50 45 39 40 41 41 39 40 39 39 41 44 39 39 40 41 44 45 44
65 65 65 65 65 65 64 64 64 64 64 64 64 65 65 64 63 62 61 61 61 62 62 62 62 63 63 63 64 65 65 66 66 66 66 65 64 64 64 63 63 62 62 62 62 63 63 63 62 62 62 62 62 62 61 61 60 59 58 57 56 55 54 54 51 49 49 46 43 38 39 40 39 38 39 39 41 42 39 39 39 40 43 43 43
64 64 64 64 64 64 64 64 64 64 63 64 64 64 65 64 64 63 62 62 61 62 62 62 62 62 63 63 64 65 65 65 66 66 66 65 65 64 64 63 63 63 62 62 62 63 63 63 62 62 62 62 62 62 61 61 60 59 58 57 56 55 54 53 51 51 48 46 43 36 39 39 38 37 40 41 41 41 39 39 38 39 40 43 42
64 64 64 64 64 64 63 63 63 63 63 63 63 64 64 65 64 63 63 62 62 62 62 62 62 62 63 63 63 64 65 65 65 66 66 65 65 64 64 63 63 63 63 62 63 62 63 62 63 62 62 62 62 61 61 60 60 58 58 57 56 55 54 53 51 49 47 45 43 40 40 38 40 37 38 37 39 39 39 38 36 36 37 39 41
63 63 64 64 64 63 63 63 63 63 63 63 63 64 64 65 65 64 63 63 62 62 62 62 62 62 62 63 63 64 65 66 66 66 66 65 65 65 64 64 63 63 63 63 62 62 62 63 63 62 62 61 61 61 61 60 59 58 57 56 55 54 53 51 50 48 47 46 42 39 40 38 38 38 37 37 37 37 36 36 37 37 37 36 38
63 63 63 63 63 64 63 63 63 63 63 63 64 64 65 66 65 65 64 64 63 63 63 62 62 62 62 63 63 64 65 66 66 66 66 65 65 65 64 64 64 63 63 63 63 63 63 63 62 62 62 61 61 61 60 59 59 58 57 56 54 53 52 51 49 48 47 46 44 39 38 39 37 36 38 37 36 36 35 36 35 36 38 36 37
60 61 61 63 63 63 64 64 64 63 63 64 64 65 65 66 66 66 65 64 64 64 63 63 63 63 62 62 63 64 65 65 66 66 66 66 65 65 64 64 64 63 63 63 62 62 62 62 62 62 62 61 61 60 59 59 58 57 56 55 53 52 51 50 49 48 46 46 45 43 39 38 39 41 41 36 36 35 37 36 34 34 35 38 38
62 63 63 63 63 63 64 65 65 65 64 65 65 65 66 66 66 66 65 65 65 64 64 64 63 63 63 63 63 63 64 65 66 66 66 66 65 65 64 64 64 63 63 62 62 62 62 62 61 61 61 61 59 58 59 59 58 57 55 53 51 50 50 49 48 47 45 46 45 44 41 39 38 39 37 35 34 34 35 36 34 35 35 36 37
65 65 64 63 64 64 65 65 66 66 66 66 66 66 67 67 67 66 66 65 65 65 64 64 64 63 63 63 63 63 64 64 62 59 60 65 65 65 64 64 64 63 62 62 61 61 61 61 60 61 59 58 56 53 52 53 56 57 56 51 50 48 48 47 46 45 45 44 45 44 42 40 39 39 38 36 35 36 35 35 33 34 37 37 38
60 62 64 65 65 65 66 66 67 66 66 66 66 67 67 67 67 67 66 66 65 65 65 64 64 64 63 63 63 63 63 63 57 54 54 57 64 65 64 64 63 63 62 62 61 61 60 60 60 60 59 58 56 51 50 50 50 51 52 52 52 48 46 45 45 44 44 44 44 44 43 42 41 40 39 38 38 34 33 33 33 36 35 33 32
60 61 63 65 66 66 67 67 67 67 67 67 67 67 67 67 67 67 67 66 65 65 65 65 64 64 64 63 63 63 63 59 53 52 53 53 58 64 64 64 63 63 62 62 61 60 60 59 59 59 59 58 58 56 52 50 48 48 47 47 46 46 46 46 45 44 43 43 42 43 43 43 42 40 39 38 38 36 36 33 31 33 35 33 34
60 61 62 64 65 67 67 67 67 67 67 67 67 67 67 67 67 67 67 66 66 65 65 65 65 64 64 63 63 63 63 57 51 51 51 52 53 60 64 63 63 62 62 61 61 60 60 59 58 58 58 57 57 56 55 53 49 47 47 47 46 43 41 41 43 45 44 43 42 41 42 42 41 40 40 38 39 36 38 36 34 34 34 34 36
59 59 61 64 64 65 66 66 66 67 67 67 67 67 67 67 67 67 67 67 66 66 65 65 65 65 64 64 64 63 63 58 51 50 50 50 51 56 64 63 63 62 62 61 61 60 59 59 58 57 56 56 56 54 53 53 51 49 49 48 48 48 45 41 41 42 44 44 42 41 42 41 41 40 41 40 39 39 37 37 38 37 37 36 38
57 59 59 60 62 62 61 61 63 66 66 67 67 67 67 67 67 67 67 67 66 66 65 65 65 65 65 64 64 64 64 56 50 49 49 49 50 53 63 63 62 62 61 61 60 60 59 59 58 58 55 55 54 52 52 50 48 48 47 47 47 47 46 45 44 44 44 45 43 42 42 42 41 41 42 41 40 39 38 37 39 37 39 40 38
54 57 58 59 59 59 59 58 59 59 60 63 65 66 66 66 66 66 66 66 66 66 66 65 65 65 65 65 64 64 64 53 49 48 48 49 49 58 63 63 62 62 61 60 60 60 59 59 58 57 55 54 51 46 48 49 47 46 46 46 45 44 44 47 42 42 45 44 43 43 42 43 42 43 43 42 41 42 43 45 43 40 38 37 37
53 55 57 57 57 58 58 58 59 60 60 59 60 63 64 66 66 66 66 66 66 66 66 65 65 65 65 65 65 64 64 56 49 48 48 47 50 60 62 63 62 61 61 60 60 59 59 58 57 56 54 53 47 42 43 46 46 46 45 44 44 43 43 42 40 41 43 43 42 42 42 41 40 40 40 40 40 42 41 43 41 38 37 36 37
52 53 54 56 58 59 59 58 58 59 59 60 61 62 62 63 65 66 66 66 66 66 66 65 65 65 64 64 65 64 64 59 48 47 47 46 53 60 62 62 62 61 61 60 59 59 58 56 57 55 53 52 44 41 41 45 46 45 44 44 43 42 42 41 40 39 38 38 38 38 39 40 41 40 40 40 39 42 39 40 39 38 37 37 36
53 53 53 54 56 58 60 61 60 59 60 61 62 62 62 62 62 64 66 66 66 66 65 65 65 65 65 65 61 63 64 59 46 46 46 46 52 60 62 62 61 61 60 59 59 58 57 55 55 54 53 50 42 40 40 44 47 45 44 43 43 42 42 41 39 37 38 38 38 41 40 42 44 43 43 40 40 43 39 38 39 37 37 37 37
54 54 54 54 55 56 57 59 61 61 60 60 61 62 63 63 63 63 64 66 65 65 65 65 65 65 65 64 64 63 64 62 50 46 46 46 49 60 62 62 61 60 60 59 58 57 57 55 52 47 46 44 41 40 39 41 47 46 44 43 43 43 41 41 40 39 40 41 40 41 41 41 42 41 41 40 42 44 39 39 39 38 38 37 37
54 53 53 54 54 54 55 57 59 61 61 61 61 61 62 62 62 62 63 64 65 65 65 65 65 65 65 65 64 64 64 63 53 45 46 46 47 54 61 61 61 60 59 57 58 57 56 55 54 48 44 43 41 39 39 39 43 47 44 44 44 45 41 41 42 44 40 41 41 41 40 39 40 40 39 39 40 42 40 39 39 38 37 37 36
55 54 54 54 54 55 55 56 59 60 60 61 61 61 62 62 62 62 63 63 64 65 65 64 64 64 65 65 64 64 63 59 57 45 45 45 46 50 60 61 60 60 59 58 57 57 57 56 54 49 43 42 40 39 39 39 39 47 45 41 40 38 41 41 41 41 40 40 40 39 39 38 39 40 39 39 40 41 40 39 38 37 36 36 35
55 55 55 55 56 56 56 56 56 60 61 60 59 60 62 62 62 62 62 62 62 63 64 64 64 64 64 64 64 64 63 59 52 50 44 45 45 47 52 57 52 59 60 58 57 57 57 56 54 48 42 41 40 40 39 39 40 43 41 39 38 37 40 41 40 40 39 39 38 38 38 38 37 38 39 39 39 39 39 39 38 37 37 36 35
56 56 55 56 56 56 56 56 57 58 60 61 61 60 61 62 62 62 62 62 62 62 64 64 64 64 64 64 63 62 61 60 51 48 47 43 45 46 48 51 50 58 59 59 58 58 57 56 52 44 42 41 40 40 40 40 41 39 39 38 37 38 41 40 39 39 37 37 36 36 37 40 36 36 37 39 39 39 39 38 38 38 37 37 36
56 56 57 57 56 56 56 56 56 56 58 60 61 62 62 60 59 58 58 59 59 60 61 63 64 63 63 63 62 61 59 57 55 48 45 44 44 44 46 47 48 50 58 59 57 57 53 49 46 42 42 41 40 40 40 39 39 39 39 38 40 40 41 40 39 39 37 36 35 38 37 35 35 35 36 37 38 38 37 38 38 37 37 36 36
55 56 57 58 57 57 56 57 57 57 58 60 61 62 61 59 60 59 59 59 59 59 59 60 61 62 63 63 62 60 57 55 53 51 47 46 44 44 45 46 47 49 54 58 52 51 48 45 42 41 41 42 44 45 45 44 39 39 39 39 42 40 41 41 40 39 37 36 35 39 38 35 34 35 36 37 37 37 37 37 37 37 37 36 35
55 56 57 57 56 56 56 57 57 57 57 58 59 59 59 59 59 58 59 59 59 59 59 58 59 60 61 63 62 59 58 56 54 51 49 49 49 48 47 48 46 47 52 57 53 53 48 46 44 42 43 42 43 43 43 42 41 41 42 43 42 43 41 41 40 40 39 37 36 39 36 36 36 35 35 35 36 36 37 37 36 35 38 37 36
56 56 55 53 52 53 55 51 54 57 57 57 58 57 57 58 59 58 58 59 59 59 59 58 58 59 61 62 61 59 59 57 54 52 50 50 50 50 50 52 53 54 56 57 58 54 50 44 43 44 45 44 44 44 45 44 42 41 43 42 41 41 42 42 42 40 39 38 38 38 38 37 35 34 35 35 35 35 37 37 37 36 38 39 37
54 54 52 51 50 48 50 51 54 56 57 57 55 54 58 58 59 59 60 60 60 59 59 59 59 60 61 62 61 60 59 57 55 49 50 47 48 51 51 52 53 53 53 51 53 49 49 48 47 46 45 44 44 44 44 42 41 41 43 43 42 41 40 41 41 41 40 39 39 40 40 37 36 35 34 34 35 35 37 37 38 37 38 39 38
55 55 55 54 53 52 51 52 53 54 53 54 52 51 42 38 42 54 58 53 50 51 53 58 60 61 62 62 61 60 59 59 50 46 45 45 45 46 47 48 48 52 48 44 49 51 51 51 49 47 46 45 44 43 43 42 41 41 42 41 44 44 44 43 41 39 40 41 40 39 39 37 38 36 35 34 34 35 37 37 38 39 38 39 39
52 53 53 52 51 53 54 54 54 54 54 53 52 50 51 50 43 38 39 46 49 47 46 47 49 51 58 61 57 51 52 47 44 44 44 44 44 45 45 45 46 46 43 45 49 48 47 48 47 47 45 46 44 44 42 42 40 41 42 42 42 43 39 41 40 38 38 39 40 41 39 37 38 37 38 34 35 35 36 37 38 39 39 38 39
50 51 52 52 51 51 54 54 54 55 55 55 53 53 53 53 52 44 39 38 38 40 42 45 47 46 46 52 56 56 47 45 45 45 44 44 44 44 44 44 45 44 43 45 47 46 48 48 45 47 46 45 44 42 43 42 40 40 41 41 41 42 41 41 42 42 40 37 37 36 37 37 38 36 36 35 33 34 35 35 36 38 38 38 39
49 50 50 51 51 50 51 52 52 53 54 54 53 53 53 52 52 52 49 42 40 39 39 38 38 40 47 48 48 51 49 47 45 45 45 44 44 44 43 42 43 43 42 47 49 46 47 49 48 47 45 44 44 43 42 42 41 42 43 41 39 42 43 43 40 42 38 39 37 35 34 34 34 34 34 34 33 33 34 33 34 36 36 35 34
49 48 48 50 50 50 51 51 51 52 52 52 52 52 51 51 51 51 51 51 51 46 42 39 38 40 39 39 42 47 47 46 45 45 45 43 42 41 41 40 41 41 44 49 49 46 47 48 47 46 45 44 44 43 42 42 41 41 42 42 43 44 44 43 43 41 37 37 37 34 33 34 32 32 32 33 33 33 33 33 33 33 33 33 33
46 44 42 45 50 50 50 50 50 50 51 50 50 50 51 50 50 49 50 48 47 46 46 45 41 38 39 38 38 37 42 44 42 41 40 39 39 39 41 44 42 43 44 46 48 49 47 46 47 46 45 44 44 42 42 42 42 41 42 42 43 44 42 41 41 42 41 41 39 38 36 35 35 33 32 32 33 32 32 32 33 33 32 33 32
44 45 46 48 49 49 49 49 49 49 49 49 49 49 48 48 49 48 47 47 47 47 45 44 43 40 39 39 37 37 37 39 39 39 39 39 40 42 44 42 44 45 45 47 48 48 48 48 47 47 46 45 44 43 42 42 42 42 43 43 42 42 42 41 39 40 41 41 39 38 38 37 36 33 32 32 33 33 33 33 33 33 33 32 32
43 42 43 45 49 49 49 48 47 46 43 45 47 48 47 47 46 48 47 47 46 46 45 44 45 45 43 42 40 38 37 37 38 38 39 39 40 44 47 46 46 45 45 46 46 47 48 48 47 47 46 45 45 44 44 43 44 43 42 43 43 42 42 42 41 38 39 38 39 39 38 37 34 32 32 31 32 33 33 33 33 32 32 32 31
42 40 40 42 44 47 48 47 47 42 45 46 46 46 46 46 46 45 45 44 43 43 44 43 41 43 42 42 45 41 40 38 38 39 39 40 39 43 44 45 45 45 45 46 46 46 47 47 47 48 47 47 46 46 45 43 43 43 42 42 41 41 39 39 37 41 38 37 36 36 35 34 34 32 31 31 31 32 33 33 33 32 32 32 31
41 37 35 36 38 42 44 44 44 45 46 46 45 44 42 44 44 44 44 44 43 43 42 43 43 42 42 43 43 43 41 40 38 37 38 39 41 43 44 44 45 45 45 45 45 45 46 46 46 47 47 47 46 45 44 44 44 43 43 42 42 41 39 38 39 39 37 36 36 35 34 34 33 32 31 31 31 31 33 33 33 32 32 31 32
40 39 37 35 38 40 40 40 41 42 42 44 45 44 43 43 44 44 44 43 43 42 43 42 42 41 41 42 41 42 41 38 38 38 38 38 40 42 43 43 44 44 44 44 45 45 45 46 47 47 48 48 46 45 45 44 44 43 43 41 40 39 39 39 37 37 37 37 36 35 34 34 33 32 31 31 31 31 32 33 33 33 33 32 32
39 39 36 35 36 37 37 38 39 40 41 41 43 44 43 42 43 42 43 43 42 43 43 43 43 42 40 38 39 39 41 40 39 39 39 39 40 41 43 44 42 43 43 43 44 45 45 46 44 45 46 46 46 45 45 45 44 43 43 40 40 39 39 40 39 37 37 36 36 36 35 34 33 33 32 32 33 32 32 32 33 33 33 33 33
35 36 36 37 37 36 36 36 37 37 38 38 40 40 41 42 43 42 41 42 41 42 43 44 44 43 40 38 39 39 42 41 40 40 40 41 40 41 42 43 44 45 44 45 45 45 45 44 44 44 45 45 45 45 45 45 44 43 42 41 39 39 38 38 38 37 37 37 36 36 35 35 34 34 33 35 33 32 32 32 32 33 33 33 33
35 35 34 34 34 35 36 36 36 36 36 36 37 36 37 39 40 41 42 41 41 41 42 42 43 44 42 39 38 39 42 42 39 40 40 40 40 41 42 43 44 45 45 46 46 46 45 44 44 44 44 45 46 44 44 44 43 42 42 40 39 39 38 38 37 37 37 37 36 36 35 35 34 34 34 34 34 33 33 32 32 33 33 33 33
32 34 34 33 33 34 35 36 35 36 36 35 34 35 35 36 37 38 39 39 39 39 40 40 41 42 42 42 41 42 43 42 42 41 41 40 41 41 42 42 44 44 45 44 44 43 44 44 43 43 44 44 45 45 44 44 44 43 41 40 39 38 39 38 38 38 37 37 37 36 36 35 35 35 34 34 34 34 34 33 33 33 33 33 33
31 31 31 32 32 32 33 34 35 35 34 34 33 33 34 34 34 35 36 37 37 38 38 37 37 38 39 40 40 40 41 41 39 41 41 41 41 42 42 43 43 44 44 44 43 42 43 42 41 41 41 43 44 45 45 45 45 45 44 43 40 39 39 39 40 39 38 37 37 36 36 36 36 35 35 35 34 34 34 34 33 33 33 33 33
28 29 29 30 31 32 32 31 32 33 34 34 34 33 33 34 34 33 33 34 35 35 36 35 35 35 35 37 37 37 38 38 38 38 38 39 40 40 41 42 43 43 43 42 43 44 42 40 40 39 39 41 42 43 44 44 43 43 44 44 44 44 44 43 41 39 38 38 38 37 36 36 36 35 35 35 34 34 34 34 34 33 33 33 33
28 28 28 28 28 29 32 32 31 31 32 33 33 32 32 32 33 33 33 32 33 33 33 33 33 33 33 33 34 34 35 35 35 36 36 36 37 38 39 40 41 42 42 43 42 42 42 42 42 41 41 42 43 43 43 42 42 43 43 43 44 44 44 43 42 41 41 41 39 37 36 36 36 36 35 35 35 35 35 35 34 34 34 33 33
26 26 27 27 27 26 27 31 30 31 32 31 31 32 32 32 31 32 31 31 31 32 31 31 32 31 31 31 31 31 32 32 32 32 33 34 34 36 37 38 39 40 40 39 38 37 37 38 38 39 39 40 40 42 42 42 43 42 42 42 42 42 42 41 44 44 43 42 41 40 39 37 37 37 36 36 36 35 35 35 34 34 34 33 33
25 25 25 26 26 26 26 26 27 28 31 32 31 30 31 31 31 31 31 30 30 31 31 30 30 30 30 30 30 29 29 29 28 28 28 29 30 32 34 35 36 37 36 35 35 34 34 34 34 34 35 35 36 36 37 37 38 39 39 39 37 35 38 39 41 43 41 41 41 41 40 40 38 37 36 36 36 35 35 35 34 33 33 33 33
24 24 24 24 24 25 26 25 25 25 27 29 30 29 28 29 30 30 30 30 30 29 30 29 30 30 30 29 29 29 28 28 27 27 26 26 27 28 30 31 32 34 35 35 33 33 32 32 32 32 32 32 32 33 33 33 34 34 34 34 33 34 35 36 37 39 40 40 40 40 40 39 38 37 36 37 36 35 35 34 33 33 33 32 32
23 23 23 23 23 23 24 24 24 24 24 25 24 25 25 25 25 25 26 26 27 28 27 26 26 27 27 27 28 28 27 28 28 27 25 24 24 26 26 28 29 29 30 32 33 32 32 31 30 30 30 29 30 31 31 31 32 32 31 31 32 33 33 35 37 35 38 38 39 39 38 37 36 35 35 35 35 35 34 34 33 33 32 32 32